Powrót do katalogu

FENGYUN 1C DEB

AktywnyPO
NORAD 30814·DEBRIS·🇨🇳 China

Wystrzelony May 10, 1999 z Taiyuan Satellite Launch Center

Loading…

Następne Przeloty (najbliższe 24 godziny)

TLE

ŚwieżeSource: Space-Track

Epoka: Sep 14, 2026, 12:14 UTC

1 30814U 99025AUY 26257.51009648  .00007246  00000-0  12973-2 0  9999
2 30814  99.0913 267.2545 0030218 107.6542  45.0286 14.66881160 17777

Śledź FENGYUN 1C DEB w czasie rzeczywistym z AllMySat

Download on the App Store